Time,TemperatureF,DewpointF,PressureIn,WindDirection,WindDirectionDegrees,WindSpeedMPH,WindSpeedGustMPH,Humidity,HourlyPrecipIn,Conditions,Clouds,dailyrainin,SoftwareType,DateUTC
2013-09-06 00:01:00,57.4,46.9,30.16,NE,45,0.0,0.0,68,0.00,,,0.00,WeatherCatV1.02B4,2013-09-06 04:01:00,
2013-09-06 00:02:00,57.5,47.0,30.16,NE,45,0.0,0.0,68,0.00,,,0.00,WeatherCatV1.02B4,2013-09-06 04:02:00,
2013-09-06 00:07:00,57.6,46.7,30.16,NE,45,0.0,0.0,67,0.00,,,0.00,WeatherCatV1.02B4,2013-09-06 04:07:00,
2013-09-06 00:12:00,57.8,46.9,30.17,NE,45,0.0,0.0,67,0.00,,,0.00,WeatherCatV1.02B4,2013-09-06 04:12:00,
2013-09-06 00:17:00,57.9,46.6,30.17,NE,45,0.0,3.0,66,0.00,,,0.00,WeatherCatV1.02B4,2013-09-06 04:17:00,
2013-09-06 00:22:00,58.0,46.3,30.17,NE,45,0.0,0.0,65,0.00,,,0.00,WeatherCatV1.02B4,2013-09-06 04:22:00,
2013-09-06 00:27:00,58.1,46.4,30.17,NE,45,0.0,0.0,65,0.00,,,0.00,WeatherCatV1.02B4,2013-09-06 04:27:00,
2013-09-06 00:32:00,58.2,46.1,30.17,NE,51,0.0,0.0,64,0.00,,,0.00,WeatherCatV1.02B4,2013-09-06 04:32:00,
2013-09-06 00:37:00,58.3,46.2,30.17,NE,47,0.0,0.0,64,0.00,,,0.00,WeatherCatV1.02B4,2013-09-06 04:37:00,
2013-09-06 00:42:00,58.3,45.8,30.17,NE,47,0.0,0.0,63,0.00,,,0.00,WeatherCatV1.02B4,2013-09-06 04:42:00,
2013-09-06 00:47:00,58.4,45.9,30.18,NE,47,0.0,0.0,63,0.00,,,0.00,WeatherCatV1.02B4,2013-09-06 04:47:00,
2013-09-06 00:52:00,58.5,45.9,30.18,East,82,0.0,5.0,63,0.00,,,0.00,WeatherCatV1.02B4,2013-09-06 04:52:00,
2013-09-06 00:57:00,58.6,46.0,30.18,East,83,0.0,0.0,63,0.00,,,0.00,WeatherCatV1.02B4,2013-09-06 04:57:00,
2013-09-06 01:02:00,58.7,46.1,30.18,East,81,0.0,0.0,63,0.00,,,0.00,WeatherCatV1.02B4,2013-09-06 05:02:00,
2013-09-06 01:05:00,58.7,46.1,30.18,East,81,0.0,0.0,63,0.00,,,0.00,WeatherCatV1.02B4,2013-09-06 05:05:00,
2013-09-06 01:07:00,58.7,45.7,30.19,ENE,58,0.0,0.0,62,0.00,,,0.00,WeatherCatV1.02B4,2013-09-06 05:07:00,
2013-09-06 01:10:00,58.7,45.7,30.18,ENE,61,0.0,0.0,62,0.00,,,0.00,WeatherCatV1.02B4,2013-09-06 05:10:00,
2013-09-06 01:15:00,58.7,45.7,30.19,NE,52,0.0,0.0,62,0.00,,,0.00,WeatherCatV1.02B4,2013-09-06 05:15:00,
2013-09-06 01:20:00,58.7,45.7,30.18,NE,52,0.0,1.0,62,0.00,,,0.00,WeatherCatV1.02B4,2013-09-06 05:20:00,
2013-09-06 01:25:00,58.7,45.3,30.19,NE,54,0.0,0.0,61,0.00,,,0.00,WeatherCatV1.02B4,2013-09-06 05:25:00,
2013-09-06 01:30:00,58.6,45.6,30.19,ENE,58,0.0,0.0,62,0.00,,,0.00,WeatherCatV1.02B4,2013-09-06 05:30:00,
2013-09-06 01:35:00,58.6,46.0,30.19,ENE,59,0.0,0.0,63,0.00,,,0.00,WeatherCatV1.02B4,2013-09-06 05:35:00,
2013-09-06 01:40:00,58.5,45.9,30.19,ENE,59,0.0,3.0,63,0.00,,,0.00,WeatherCatV1.02B4,2013-09-06 05:40:00,
2013-09-06 01:45:00,58.4,45.9,30.19,ENE,59,0.0,0.0,63,0.00,,,0.00,WeatherCatV1.02B4,2013-09-06 05:45:00,
2013-09-06 01:50:00,58.3,45.8,30.19,NE,55,0.0,0.0,63,0.00,,,0.00,WeatherCatV1.02B4,2013-09-06 05:50:00,
2013-09-06 01:55:00,58.2,45.7,30.19,NE,56,0.0,0.0,63,0.00,,,0.00,WeatherCatV1.02B4,2013-09-06 05:55:00,
2013-09-06 02:00:00,58.1,45.6,30.19,NE,56,0.0,0.0,63,0.00,,,0.00,WeatherCatV1.02B4,2013-09-06 06:00:00,
2013-09-06 02:05:00,58.0,45.5,30.19,SE,144,0.0,0.0,63,0.00,,,0.00,WeatherCatV1.02B4,2013-09-06 06:05:00,
2013-09-06 02:10:00,57.9,45.0,30.19,SSE,153,0.0,0.0,62,0.00,,,0.00,WeatherCatV1.02B4,2013-09-06 06:10:00,
2013-09-06 02:15:00,57.9,45.4,30.19,ESE,104,0.0,2.0,63,0.00,,,0.00,WeatherCatV1.02B4,2013-09-06 06:15:00,
2013-09-06 02:20:00,57.8,44.9,30.19,West,280,0.0,0.0,62,0.00,,,0.00,WeatherCatV1.02B4,2013-09-06 06:20:00,
2013-09-06 02:30:00,57.7,45.2,30.19,West,265,0.0,0.0,63,0.00,,,0.00,WeatherCatV1.02B4,2013-09-06 06:30:00,
2013-09-06 02:35:00,57.6,44.7,30.19,East,86,0.0,0.0,62,0.00,,,0.00,WeatherCatV1.02B4,2013-09-06 06:35:00,
2013-09-06 02:40:00,57.5,45.0,30.19,ENE,61,4.0,5.0,63,0.00,,,0.00,WeatherCatV1.02B4,2013-09-06 06:40:00,
2013-09-06 02:45:00,57.5,45.0,30.19,NW,321,0.0,0.0,63,0.00,,,0.00,WeatherCatV1.02B4,2013-09-06 06:45:00,
2013-09-06 02:50:00,57.4,44.1,30.19,NE,50,0.0,0.0,61,0.00,,,0.00,WeatherCatV1.02B4,2013-09-06 06:50:00,
2013-09-06 02:55:00,57.3,44.4,30.19,NE,47,0.0,5.0,62,0.00,,,0.00,WeatherCatV1.02B4,2013-09-06 06:55:00,
2013-09-06 03:00:00,57.3,44.4,30.19,NE,45,0.0,0.0,62,0.00,,,0.00,WeatherCatV1.02B4,2013-09-06 07:00:00,
2013-09-06 03:05:00,57.3,44.4,30.19,NE,45,0.0,0.0,62,0.00,,,0.00,WeatherCatV1.02B4,2013-09-06 07:05:00,
2013-09-06 03:10:00,57.1,44.6,30.19,NE,45,0.0,0.0,63,0.00,,,0.00,WeatherCatV1.02B4,2013-09-06 07:10:00,
2013-09-06 03:15:00,57.0,44.5,30.19,NE,47,0.0,5.0,63,0.00,,,0.00,WeatherCatV1.02B4,2013-09-06 07:15:00,
2013-09-06 03:20:00,56.8,44.3,30.20,NE,47,0.0,0.0,63,0.00,,,0.00,WeatherCatV1.02B4,2013-09-06 07:20:00,
2013-09-06 03:25:00,56.6,44.6,30.20,NE,51,0.0,0.0,64,0.00,,,0.00,WeatherCatV1.02B4,2013-09-06 07:25:00,
2013-09-06 03:30:00,56.4,44.4,30.20,NE,51,0.0,0.0,64,0.00,,,0.00,WeatherCatV1.02B4,2013-09-06 07:30:00,
2013-09-06 03:35:00,56.2,44.2,30.19,NE,48,0.0,0.0,64,0.00,,,0.00,WeatherCatV1.02B4,2013-09-06 07:35:00,
2013-09-06 03:40:00,56.1,44.1,30.20,NE,49,0.0,0.0,64,0.00,,,0.00,WeatherCatV1.02B4,2013-09-06 07:40:00,
2013-09-06 03:45:00,56.0,44.4,30.20,NE,48,0.0,0.0,65,0.00,,,0.00,WeatherCatV1.02B4,2013-09-06 07:45:00,
2013-09-06 03:50:00,55.7,44.1,30.20,NE,48,0.0,0.0,65,0.00,,,0.00,WeatherCatV1.02B4,2013-09-06 07:50:00,
2013-09-06 03:55:00,55.6,44.4,30.20,NE,48,0.0,0.0,66,0.00,,,0.00,WeatherCatV1.02B4,2013-09-06 07:55:00,
2013-09-06 04:00:00,55.5,44.3,30.21,NE,48,0.0,0.0,66,0.00,,,0.00,WeatherCatV1.02B4,2013-09-06 08:00:00,
2013-09-06 04:05:00,55.1,43.9,30.20,NE,48,0.0,0.0,66,0.00,,,0.00,WeatherCatV1.02B4,2013-09-06 08:05:00,
2013-09-06 04:10:00,54.9,44.1,30.21,NE,48,0.0,0.0,67,0.00,,,0.00,WeatherCatV1.02B4,2013-09-06 08:10:00,
2013-09-06 04:15:00,54.7,44.3,30.20,NE,49,0.0,0.0,68,0.00,,,0.00,WeatherCatV1.02B4,2013-09-06 08:15:00,
2013-09-06 04:20:00,54.4,44.1,30.20,NE,48,0.0,0.0,68,0.00,,,0.00,WeatherCatV1.02B4,2013-09-06 08:20:00,
2013-09-06 04:25:00,54.2,44.3,30.21,NE,48,0.0,0.0,69,0.00,,,0.00,WeatherCatV1.02B4,2013-09-06 08:25:00,
2013-09-06 04:30:00,54.2,44.3,30.21,NE,48,0.0,0.0,69,0.00,,,0.00,WeatherCatV1.02B4,2013-09-06 08:30:00,
2013-09-06 04:35:00,54.0,44.1,30.20,NE,48,0.0,0.0,69,0.00,,,0.00,WeatherCatV1.02B4,2013-09-06 08:35:00,
2013-09-06 04:40:00,53.8,44.2,30.21,NE,48,0.0,0.0,70,0.00,,,0.00,WeatherCatV1.02B4,2013-09-06 08:40:00,
2013-09-06 04:45:00,53.7,44.2,30.21,NE,48,0.0,0.0,70,0.00,,,0.00,WeatherCatV1.02B4,2013-09-06 08:45:00,
2013-09-06 04:50:00,53.4,44.2,30.21,NE,48,0.0,0.0,71,0.00,,,0.00,WeatherCatV1.02B4,2013-09-06 08:50:00,
2013-09-06 04:55:00,53.1,43.9,30.21,NE,48,0.0,0.0,71,0.00,,,0.00,WeatherCatV1.02B4,2013-09-06 08:55:00,
2013-09-06 05:00:00,52.8,43.7,30.21,NE,48,0.0,0.0,71,0.00,,,0.00,WeatherCatV1.02B4,2013-09-06 09:00:00,
2013-09-06 05:05:00,52.5,44.1,30.21,NE,48,0.0,0.0,73,0.00,,,0.00,WeatherCatV1.02B4,2013-09-06 09:05:00,
2013-09-06 05:10:00,52.4,44.0,30.21,NE,48,0.0,0.0,73,0.00,,,0.00,WeatherCatV1.02B4,2013-09-06 09:10:00,
2013-09-06 05:15:00,52.3,44.3,30.21,NE,48,0.0,0.0,74,0.00,,,0.00,WeatherCatV1.02B4,2013-09-06 09:15:00,
2013-09-06 05:20:00,52.2,44.5,30.21,NE,48,0.0,0.0,75,0.00,,,0.00,WeatherCatV1.02B4,2013-09-06 09:20:00,
2013-09-06 05:25:00,52.2,44.5,30.21,NE,48,0.0,0.0,75,0.00,,,0.00,WeatherCatV1.02B4,2013-09-06 09:25:00,
2013-09-06 05:30:00,52.1,44.4,30.21,NE,48,0.0,0.0,75,0.00,,,0.00,WeatherCatV1.02B4,2013-09-06 09:30:00,
2013-09-06 05:35:00,52.1,44.4,30.21,NE,48,0.0,0.0,75,0.00,,,0.00,WeatherCatV1.02B4,2013-09-06 09:35:00,
2013-09-06 05:40:00,52.1,44.4,30.22,NE,48,0.0,0.0,75,0.00,,,0.00,WeatherCatV1.02B4,2013-09-06 09:40:00,
2013-09-06 05:45:00,52.0,44.3,30.22,NE,48,0.0,0.0,75,0.00,,,0.00,WeatherCatV1.02B4,2013-09-06 09:45:00,
2013-09-06 05:50:00,51.9,44.2,30.21,NE,48,0.0,0.0,75,0.00,,,0.00,WeatherCatV1.02B4,2013-09-06 09:50:00,
2013-09-06 05:55:00,51.9,44.2,30.21,NE,48,0.0,0.0,75,0.00,,,0.00,WeatherCatV1.02B4,2013-09-06 09:55:00,
2013-09-06 06:00:00,51.9,44.2,30.22,NE,48,0.0,0.0,75,0.00,,,0.00,WeatherCatV1.02B4,2013-09-06 10:00:00,
2013-09-06 06:05:00,52.0,44.3,30.22,NE,48,0.0,0.0,75,0.00,,,0.00,WeatherCatV1.02B4,2013-09-06 10:05:00,
2013-09-06 06:10:00,52.0,44.3,30.22,NE,48,0.0,0.0,75,0.00,,,0.00,WeatherCatV1.02B4,2013-09-06 10:10:00,
2013-09-06 06:15:00,52.1,44.4,30.23,NE,48,0.0,0.0,75,0.00,,,0.00,WeatherCatV1.02B4,2013-09-06 10:15:00,
2013-09-06 06:20:00,52.0,44.0,30.23,NE,48,0.0,0.0,74,0.00,,,0.00,WeatherCatV1.02B4,2013-09-06 10:20:00,
2013-09-06 06:26:00,51.9,43.9,30.23,NE,48,0.0,0.0,74,0.00,,,0.00,WeatherCatV1.02B4,2013-09-06 10:26:00,
2013-09-06 06:31:00,51.7,43.7,30.23,NE,48,0.0,0.0,74,0.00,,,0.00,WeatherCatV1.02B4,2013-09-06 10:31:00,
2013-09-06 06:36:00,51.6,43.6,30.23,NE,48,0.0,0.0,74,0.00,,,0.00,WeatherCatV1.02B4,2013-09-06 10:36:00,
2013-09-06 06:41:00,51.6,43.9,30.23,NE,48,0.0,0.0,75,0.00,,,0.00,WeatherCatV1.02B4,2013-09-06 10:41:00,
2013-09-06 06:46:00,51.5,43.8,30.23,NE,48,0.0,0.0,75,0.00,,,0.00,WeatherCatV1.02B4,2013-09-06 10:46:00,
2013-09-06 06:51:00,51.4,44.1,30.24,NE,48,0.0,0.0,76,0.00,,,0.00,WeatherCatV1.02B4,2013-09-06 10:51:00,
2013-09-06 06:56:00,51.3,44.0,30.23,NE,48,0.0,0.0,76,0.00,,,0.00,WeatherCatV1.02B4,2013-09-06 10:56:00,
2013-09-06 07:01:00,51.1,43.8,30.23,NE,48,0.0,0.0,76,0.00,,,0.00,WeatherCatV1.02B4,2013-09-06 11:01:00,
2013-09-06 07:06:00,50.9,43.9,30.24,NE,48,0.0,0.0,77,0.00,,,0.00,WeatherCatV1.02B4,2013-09-06 11:06:00,
2013-09-06 07:11:00,50.9,43.9,30.24,NE,48,0.0,0.0,77,0.00,,,0.00,WeatherCatV1.02B4,2013-09-06 11:11:00,
2013-09-06 07:16:00,50.9,43.9,30.24,NE,48,0.0,0.0,77,0.00,,,0.00,WeatherCatV1.02B4,2013-09-06 11:16:00,
2013-09-06 07:21:00,51.1,44.5,30.24,NE,48,0.0,0.0,78,0.00,,,0.00,WeatherCatV1.02B4,2013-09-06 11:21:00,
2013-09-06 07:26:00,51.2,44.6,30.24,NE,48,0.0,0.0,78,0.00,,,0.00,WeatherCatV1.02B4,2013-09-06 11:26:00,
2013-09-06 07:31:00,51.3,45.0,30.24,NE,48,0.0,0.0,79,0.00,,,0.00,WeatherCatV1.02B4,2013-09-06 11:31:00,
2013-09-06 07:36:00,51.5,44.9,30.24,NE,48,0.0,0.0,78,0.00,,,0.00,WeatherCatV1.02B4,2013-09-06 11:36:00,
2013-09-06 07:41:00,51.7,45.1,30.24,NE,48,0.0,0.0,78,0.00,,,0.00,WeatherCatV1.02B4,2013-09-06 11:41:00,
2013-09-06 07:46:00,52.0,45.0,30.25,NE,48,0.0,0.0,77,0.00,,,0.00,WeatherCatV1.02B4,2013-09-06 11:46:00,
2013-09-06 07:51:00,52.3,45.3,30.25,NE,48,0.0,0.0,77,0.00,,,0.00,WeatherCatV1.02B4,2013-09-06 11:51:00,
2013-09-06 07:56:00,52.6,44.9,30.25,NE,49,0.0,0.0,75,0.00,,,0.00,WeatherCatV1.02B4,2013-09-06 11:56:00,
2013-09-06 08:01:00,53.1,45.0,30.25,NE,49,0.0,0.0,74,0.00,,,0.00,WeatherCatV1.02B4,2013-09-06 12:01:00,
2013-09-06 08:06:00,53.5,44.7,30.25,North,358,0.0,0.0,72,0.00,,,0.00,WeatherCatV1.02B4,2013-09-06 12:06:00,
2013-09-06 08:11:00,54.0,44.4,30.25,North,10,0.0,0.0,70,0.00,,,0.00,WeatherCatV1.02B4,2013-09-06 12:11:00,
2013-09-06 08:16:00,54.4,44.4,30.25,NNW,341,0.0,0.0,69,0.00,,,0.00,WeatherCatV1.02B4,2013-09-06 12:16:00,
2013-09-06 08:21:00,54.8,44.4,30.25,ESE,107,0.0,5.0,68,0.00,,,0.00,WeatherCatV1.02B4,2013-09-06 12:21:00,
2013-09-06 08:26:00,55.1,43.9,30.25,NE,46,0.0,0.0,66,0.00,,,0.00,WeatherCatV1.02B4,2013-09-06 12:26:00,
2013-09-06 08:31:00,55.5,43.9,30.25,NE,55,0.0,4.0,65,0.00,,,0.00,WeatherCatV1.02B4,2013-09-06 12:31:00,
2013-09-06 08:36:00,56.0,43.6,30.25,SSE,162,0.0,5.0,63,0.00,,,0.00,WeatherCatV1.02B4,2013-09-06 12:36:00,
2013-09-06 08:41:00,56.4,43.1,30.25,SSW,207,0.0,0.0,61,0.00,,,0.00,WeatherCatV1.02B4,2013-09-06 12:41:00,
2013-09-06 08:46:00,56.8,42.6,30.26,ESE,118,0.0,1.0,59,0.00,,,0.00,WeatherCatV1.02B4,2013-09-06 12:46:00,
2013-09-06 08:51:00,57.2,43.0,30.25,NNE,20,0.0,0.0,59,0.00,,,0.00,WeatherCatV1.02B4,2013-09-06 12:51:00,
2013-09-06 08:56:00,57.6,42.9,30.26,NE,39,0.0,0.0,58,0.00,,,0.00,WeatherCatV1.02B4,2013-09-06 12:56:00,
2013-09-06 09:01:00,57.9,42.8,30.26,NE,39,0.0,0.0,57,0.00,,,0.00,WeatherCatV1.02B4,2013-09-06 13:01:00,
2013-09-06 09:06:00,58.2,43.5,30.26,NE,41,0.0,0.0,58,0.00,,,0.00,WeatherCatV1.02B4,2013-09-06 13:06:00,
2013-09-06 09:11:00,58.5,42.4,30.26,NE,48,0.0,4.0,55,0.00,,,0.00,WeatherCatV1.02B4,2013-09-06 13:11:00,
2013-09-06 09:16:00,58.8,42.2,30.26,NE,49,0.0,5.0,54,0.00,,,0.00,WeatherCatV1.02B4,2013-09-06 13:16:00,
2013-09-06 09:21:00,59.0,41.9,30.26,NE,56,0.0,6.0,53,0.00,,,0.00,WeatherCatV1.02B4,2013-09-06 13:21:00,
2013-09-06 09:26:00,59.2,41.6,30.26,NE,40,4.0,8.0,52,0.00,,,0.00,WeatherCatV1.02B4,2013-09-06 13:26:00,
2013-09-06 09:31:00,59.3,41.2,30.26,NNE,27,0.0,6.0,51,0.00,,,0.00,WeatherCatV1.02B4,2013-09-06 13:31:00,
2013-09-06 09:36:00,59.4,41.8,30.26,ENE,60,0.0,2.0,52,0.00,,,0.00,WeatherCatV1.02B4,2013-09-06 13:36:00,
2013-09-06 09:41:00,59.6,40.9,30.26,ENE,58,0.0,4.0,50,0.00,,,0.00,WeatherCatV1.02B4,2013-09-06 13:41:00,
2013-09-06 09:46:00,59.8,41.1,30.26,ENE,76,3.0,5.0,50,0.00,,,0.00,WeatherCatV1.02B4,2013-09-06 13:46:00,
2013-09-06 09:51:00,60.1,41.9,30.26,ESE,113,0.0,0.0,51,0.00,,,0.00,WeatherCatV1.02B4,2013-09-06 13:51:00,
2013-09-06 09:56:00,60.4,42.2,30.26,NE,44,5.0,6.0,51,0.00,,,0.00,WeatherCatV1.02B4,2013-09-06 13:56:00,
2013-09-06 10:01:00,60.6,41.9,30.26,NE,41,0.0,0.0,50,0.00,,,0.00,WeatherCatV1.02B4,2013-09-06 14:01:00,
2013-09-06 10:06:00,60.7,41.4,30.26,ESE,112,5.0,7.0,49,0.00,,,0.00,WeatherCatV1.02B4,2013-09-06 14:06:00,
2013-09-06 10:11:00,60.9,41.1,30.26,East,88,5.0,5.0,48,0.00,,,0.00,WeatherCatV1.02B4,2013-09-06 14:11:00,
2013-09-06 10:16:00,61.0,41.2,30.26,NE,48,3.0,4.0,48,0.00,,,0.00,WeatherCatV1.02B4,2013-09-06 14:16:00,
2013-09-06 10:21:00,61.2,41.9,30.26,East,98,0.0,5.0,49,0.00,,,0.00,WeatherCatV1.02B4,2013-09-06 14:21:00,
2013-09-06 10:26:00,61.4,41.5,30.26,SE,127,3.0,5.0,48,0.00,,,0.00,WeatherCatV1.02B4,2013-09-06 14:26:00,
2013-09-06 10:31:00,61.6,41.2,30.26,ESE,122,4.0,9.0,47,0.00,,,0.00,WeatherCatV1.02B4,2013-09-06 14:31:00,
2013-09-06 10:36:00,61.8,41.9,30.26,East,87,0.0,1.0,48,0.00,,,0.00,WeatherCatV1.02B4,2013-09-06 14:36:00,
2013-09-06 10:41:00,62.0,41.5,30.26,NE,39,1.0,1.0,47,0.00,,,0.00,WeatherCatV1.02B4,2013-09-06 14:41:00,
2013-09-06 10:46:00,62.2,41.7,30.26,ENE,57,3.0,7.0,47,0.00,,,0.00,WeatherCatV1.02B4,2013-09-06 14:46:00,
2013-09-06 10:51:00,62.3,41.3,30.26,NE,43,2.0,5.0,46,0.00,,,0.00,WeatherCatV1.02B4,2013-09-06 14:51:00,
2013-09-06 10:56:00,62.3,41.3,30.27,NW,309,0.0,5.0,46,0.00,,,0.00,WeatherCatV1.02B4,2013-09-06 14:56:00,
2013-09-06 11:01:00,62.3,41.3,30.27,ESE,118,7.0,11.0,46,0.00,,,0.00,WeatherCatV1.02B4,2013-09-06 15:01:00,
2013-09-06 11:06:00,62.5,40.3,30.26,NNE,25,1.0,6.0,44,0.00,,,0.00,WeatherCatV1.02B4,2013-09-06 15:06:00,
2013-09-06 11:11:00,62.4,40.8,30.26,East,87,0.0,0.0,45,0.00,,,0.00,WeatherCatV1.02B4,2013-09-06 15:11:00,
2013-09-06 11:16:00,62.5,40.3,30.27,ESE,113,4.0,8.0,44,0.00,,,0.00,WeatherCatV1.02B4,2013-09-06 15:16:00,
2013-09-06 11:21:00,62.6,40.4,30.26,ESE,112,0.0,8.0,44,0.00,,,0.00,WeatherCatV1.02B4,2013-09-06 15:21:00,
2013-09-06 11:26:00,62.8,40.6,30.26,NE,55,0.0,6.0,44,0.00,,,0.00,WeatherCatV1.02B4,2013-09-06 15:26:00,
2013-09-06 11:31:00,62.9,40.1,30.26,ESE,103,4.0,8.0,43,0.00,,,0.00,WeatherCatV1.02B4,2013-09-06 15:31:00,
2013-09-06 11:36:00,63.0,39.5,30.26,ENE,65,0.0,3.0,42,0.00,,,0.00,WeatherCatV1.02B4,2013-09-06 15:36:00,
2013-09-06 11:41:00,63.1,39.0,30.26,East,88,0.0,5.0,41,0.00,,,0.00,WeatherCatV1.02B4,2013-09-06 15:41:00,
2013-09-06 11:46:00,63.3,39.8,30.26,ENE,69,0.0,4.0,42,0.00,,,0.00,WeatherCatV1.02B4,2013-09-06 15:46:00,
2013-09-06 11:51:00,63.6,39.5,30.26,NE,49,0.0,5.0,41,0.00,,,0.00,WeatherCatV1.02B4,2013-09-06 15:51:00,
2013-09-06 11:56:00,63.7,39.6,30.26,NE,52,3.0,5.0,41,0.00,,,0.00,WeatherCatV1.02B4,2013-09-06 15:56:00,
2013-09-06 12:01:00,64.0,39.2,30.26,WNW,298,0.0,4.0,40,0.00,,,0.00,WeatherCatV1.02B4,2013-09-06 16:01:00,
2013-09-06 12:06:00,64.0,39.8,30.26,East,85,0.0,0.0,41,0.00,,,0.00,WeatherCatV1.02B4,2013-09-06 16:06:00,
2013-09-06 12:11:00,64.2,38.7,30.25,NW,326,0.0,0.0,39,0.00,,,0.00,WeatherCatV1.02B4,2013-09-06 16:11:00,
2013-09-06 12:16:00,64.3,39.5,30.25,ESE,123,1.0,5.0,40,0.00,,,0.00,WeatherCatV1.02B4,2013-09-06 16:16:00,
2013-09-06 12:21:00,64.3,38.1,30.25,West,274,0.0,1.0,38,0.00,,,0.00,WeatherCatV1.02B4,2013-09-06 16:21:00,
2013-09-06 12:26:00,64.4,39.5,30.25,NE,34,0.0,1.0,40,0.00,,,0.00,WeatherCatV1.02B4,2013-09-06 16:26:00,
2013-09-06 12:31:00,64.6,38.4,30.25,NNE,26,0.0,2.0,38,0.00,,,0.00,WeatherCatV1.02B4,2013-09-06 16:31:00,
2013-09-06 12:36:00,64.9,38.0,30.25,NE,36,0.0,5.0,37,0.00,,,0.00,WeatherCatV1.02B4,2013-09-06 16:36:00,
2013-09-06 12:41:00,65.0,39.4,30.24,NW,316,0.0,0.0,39,0.00,,,0.00,WeatherCatV1.02B4,2013-09-06 16:41:00,
2013-09-06 12:46:00,65.1,38.9,30.24,SE,126,0.0,0.0,38,0.00,,,0.00,WeatherCatV1.02B4,2013-09-06 16:46:00,
2013-09-06 12:51:00,65.3,39.7,30.24,SE,125,0.0,0.0,39,0.00,,,0.00,WeatherCatV1.02B4,2013-09-06 16:51:00,
2013-09-06 12:56:00,65.5,39.9,30.24,NNE,25,0.0,7.0,39,0.00,,,0.00,WeatherCatV1.02B4,2013-09-06 16:56:00,
2013-09-06 13:01:00,65.6,39.3,30.24,NE,55,0.0,0.0,38,0.00,,,0.00,WeatherCatV1.02B4,2013-09-06 17:01:00,
2013-09-06 13:06:00,65.6,40.0,30.24,East,90,2.0,4.0,39,0.00,,,0.00,WeatherCatV1.02B4,2013-09-06 17:06:00,
2013-09-06 13:11:00,65.6,39.3,30.24,ESE,109,4.0,7.0,38,0.00,,,0.00,WeatherCatV1.02B4,2013-09-06 17:11:00,
2013-09-06 13:16:00,65.7,39.4,30.24,ESE,121,0.0,0.0,38,0.00,,,0.00,WeatherCatV1.02B4,2013-09-06 17:16:00,
2013-09-06 13:21:00,65.8,38.8,30.23,ESE,120,0.0,3.0,37,0.00,,,0.00,WeatherCatV1.02B4,2013-09-06 17:21:00,
2013-09-06 13:26:00,65.7,40.7,30.23,ESE,119,0.0,0.0,40,0.00,,,0.00,WeatherCatV1.02B4,2013-09-06 17:26:00,
2013-09-06 13:31:00,65.9,40.2,30.23,ENE,70,0.0,0.0,39,0.00,,,0.00,WeatherCatV1.02B4,2013-09-06 17:31:00,
2013-09-06 13:36:00,66.3,39.9,30.23,NNE,32,0.0,0.0,38,0.00,,,0.00,WeatherCatV1.02B4,2013-09-06 17:36:00,
2013-09-06 13:41:00,66.6,40.2,30.23,SSW,192,0.0,3.0,38,0.00,,,0.00,WeatherCatV1.02B4,2013-09-06 17:41:00,
2013-09-06 13:46:00,66.9,41.1,30.23,NNE,15,0.0,0.0,39,0.00,,,0.00,WeatherCatV1.02B4,2013-09-06 17:46:00,
2013-09-06 13:51:00,67.1,40.0,30.23,West,267,0.0,1.0,37,0.00,,,0.00,WeatherCatV1.02B4,2013-09-06 17:51:00,
2013-09-06 13:56:00,67.4,40.2,30.22,WSW,257,0.0,0.0,37,0.00,,,0.00,WeatherCatV1.02B4,2013-09-06 17:56:00,
2013-09-06 14:01:00,67.5,38.9,30.22,NW,312,0.0,0.0,35,0.00,,,0.00,WeatherCatV1.02B4,2013-09-06 18:01:00,
2013-09-06 14:06:00,67.5,39.6,30.22,NNE,32,0.0,2.0,36,0.00,,,0.00,WeatherCatV1.02B4,2013-09-06 18:06:00,
2013-09-06 14:11:00,67.5,38.9,30.22,ENE,57,6.0,6.0,35,0.00,,,0.00,WeatherCatV1.02B4,2013-09-06 18:11:00,
2013-09-06 14:16:00,67.4,38.8,30.22,NE,55,0.0,0.0,35,0.00,,,0.00,WeatherCatV1.02B4,2013-09-06 18:16:00,
2013-09-06 14:21:00,67.3,39.4,30.22,NNE,28,3.0,4.0,36,0.00,,,0.00,WeatherCatV1.02B4,2013-09-06 18:21:00,
2013-09-06 14:27:00,67.2,39.3,30.21,NNE,21,0.0,0.0,36,0.00,,,0.00,WeatherCatV1.02B4,2013-09-06 18:27:00,
2013-09-06 14:32:00,66.9,39.1,30.21,North,8,0.0,0.0,36,0.00,,,0.00,WeatherCatV1.02B4,2013-09-06 18:32:00,
2013-09-06 14:37:00,67.0,39.2,30.21,North,0,0.0,0.0,36,0.00,,,0.00,WeatherCatV1.02B4,2013-09-06 18:37:00,
2013-09-06 14:42:00,67.1,37.8,30.21,NE,46,0.0,0.0,34,0.00,,,0.00,WeatherCatV1.02B4,2013-09-06 18:42:00,
2013-09-06 14:47:00,67.3,38.0,30.20,North,0,0.0,0.0,34,0.00,,,0.00,WeatherCatV1.02B4,2013-09-06 18:47:00,
2013-09-06 14:52:00,67.4,38.1,30.20,North,1,0.0,0.0,34,0.00,,,0.00,WeatherCatV1.02B4,2013-09-06 18:52:00,
2013-09-06 14:57:00,67.5,38.1,30.20,East,100,0.0,5.0,34,0.00,,,0.00,WeatherCatV1.02B4,2013-09-06 18:57:00,
2013-09-06 15:02:00,67.7,39.8,30.20,East,100,0.0,0.0,36,0.00,,,0.00,WeatherCatV1.02B4,2013-09-06 19:02:00,
2013-09-06 15:07:00,67.9,40.7,30.20,East,99,0.0,0.0,37,0.00,,,0.00,WeatherCatV1.02B4,2013-09-06 19:07:00,
2013-09-06 15:12:00,68.0,38.6,30.19,East,83,2.0,6.0,34,0.00,,,0.00,WeatherCatV1.02B4,2013-09-06 19:12:00,
2013-09-06 15:17:00,68.2,40.2,30.19,SE,136,0.0,0.0,36,0.00,,,0.00,WeatherCatV1.02B4,2013-09-06 19:17:00,
2013-09-06 15:22:00,68.4,39.7,30.19,South,190,0.0,0.0,35,0.00,,,0.00,WeatherCatV1.02B4,2013-09-06 19:22:00,
2013-09-06 15:27:00,68.6,38.3,30.19,SE,131,0.0,0.0,33,0.00,,,0.00,WeatherCatV1.02B4,2013-09-06 19:27:00,
2013-09-06 15:32:00,68.7,38.4,30.19,East,101,0.0,4.0,33,0.00,,,0.00,WeatherCatV1.02B4,2013-09-06 19:32:00,
2013-09-06 15:37:00,68.7,38.4,30.18,NNE,26,0.0,4.0,33,0.00,,,0.00,WeatherCatV1.02B4,2013-09-06 19:37:00,
2013-09-06 15:42:00,68.5,38.3,30.18,NNW,333,0.0,0.0,33,0.00,,,0.00,WeatherCatV1.02B4,2013-09-06 19:42:00,
2013-09-06 15:47:00,68.4,38.2,30.18,NNE,17,0.0,0.0,33,0.00,,,0.00,WeatherCatV1.02B4,2013-09-06 19:47:00,
2013-09-06 15:52:00,68.4,38.2,30.18,NNE,17,0.0,0.0,33,0.00,,,0.00,WeatherCatV1.02B4,2013-09-06 19:52:00,
2013-09-06 15:57:00,68.5,39.8,30.18,NNE,17,0.0,0.0,35,0.00,,,0.00,WeatherCatV1.02B4,2013-09-06 19:57:00,
2013-09-06 16:02:00,68.7,39.9,30.17,West,274,0.0,0.0,35,0.00,,,0.00,WeatherCatV1.02B4,2013-09-06 20:02:00,
2013-09-06 16:07:00,68.7,39.9,30.17,WNW,296,0.0,0.0,35,0.00,,,0.00,WeatherCatV1.02B4,2013-09-06 20:07:00,
2013-09-06 16:12:00,68.8,38.5,30.17,NE,52,0.0,0.0,33,0.00,,,0.00,WeatherCatV1.02B4,2013-09-06 20:12:00,
2013-09-06 16:17:00,68.8,38.5,30.17,ESE,102,0.0,0.0,33,0.00,,,0.00,WeatherCatV1.02B4,2013-09-06 20:17:00,
2013-09-06 16:22:00,68.8,39.3,30.17,East,94,0.0,0.0,34,0.00,,,0.00,WeatherCatV1.02B4,2013-09-06 20:22:00,
2013-09-06 16:27:00,68.8,41.5,30.17,East,95,0.0,0.0,37,0.00,,,0.00,WeatherCatV1.02B4,2013-09-06 20:27:00,
2013-09-06 16:32:00,69.0,40.9,30.17,East,95,0.0,0.0,36,0.00,,,0.00,WeatherCatV1.02B4,2013-09-06 20:32:00,
2013-09-06 16:37:00,69.4,39.0,30.17,SSE,149,0.0,0.0,33,0.00,,,0.00,WeatherCatV1.02B4,2013-09-06 20:37:00,
2013-09-06 16:42:00,69.8,38.6,30.17,SSW,204,0.0,0.0,32,0.00,,,0.00,WeatherCatV1.02B4,2013-09-06 20:42:00,
2013-09-06 16:47:00,70.2,39.0,30.17,SSW,204,0.0,0.0,32,0.00,,,0.00,WeatherCatV1.02B4,2013-09-06 20:47:00,
2013-09-06 16:52:00,70.7,40.2,30.17,SSW,204,0.0,0.0,33,0.00,,,0.00,WeatherCatV1.02B4,2013-09-06 20:52:00,
2013-09-06 16:57:00,71.7,39.4,30.17,SSW,204,0.0,0.0,31,0.00,,,0.00,WeatherCatV1.02B4,2013-09-06 20:57:00,
2013-09-06 17:02:00,72.3,40.8,30.17,SW,217,0.0,1.0,32,0.00,,,0.00,WeatherCatV1.02B4,2013-09-06 21:02:00,
2013-09-06 17:07:00,72.4,39.2,30.17,SW,220,0.0,0.0,30,0.00,,,0.00,WeatherCatV1.02B4,2013-09-06 21:07:00,
2013-09-06 17:12:00,72.5,39.3,30.17,SW,220,0.0,0.0,30,0.00,,,0.00,WeatherCatV1.02B4,2013-09-06 21:12:00,
2013-09-06 17:17:00,72.3,39.1,30.17,SW,220,0.0,0.0,30,0.00,,,0.00,WeatherCatV1.02B4,2013-09-06 21:17:00,
2013-09-06 17:22:00,72.2,39.9,30.17,SW,220,0.0,0.0,31,0.00,,,0.00,WeatherCatV1.02B4,2013-09-06 21:22:00,
2013-09-06 17:27:00,71.9,40.4,30.17,SW,220,0.0,0.0,32,0.00,,,0.00,WeatherCatV1.02B4,2013-09-06 21:27:00,
2013-09-06 17:32:00,71.1,38.1,30.16,SW,223,0.0,0.0,30,0.00,,,0.00,WeatherCatV1.02B4,2013-09-06 21:32:00,
2013-09-06 17:37:00,70.2,38.1,30.17,SW,223,0.0,0.0,31,0.00,,,0.00,WeatherCatV1.02B4,2013-09-06 21:37:00,
2013-09-06 17:42:00,69.6,39.2,30.17,SW,223,0.0,0.0,33,0.00,,,0.00,WeatherCatV1.02B4,2013-09-06 21:42:00,
2013-09-06 17:47:00,69.1,39.5,30.17,SW,223,0.0,0.0,34,0.00,,,0.00,WeatherCatV1.02B4,2013-09-06 21:47:00,
2013-09-06 17:52:00,68.8,38.5,30.16,SW,227,0.0,1.0,33,0.00,,,0.00,WeatherCatV1.02B4,2013-09-06 21:52:00,
2013-09-06 17:57:00,68.4,38.2,30.17,SW,227,0.0,0.0,33,0.00,,,0.00,WeatherCatV1.02B4,2013-09-06 21:57:00,
2013-09-06 18:02:00,68.1,39.4,30.16,SW,227,0.0,0.0,35,0.00,,,0.00,WeatherCatV1.02B4,2013-09-06 22:02:00,
2013-09-06 18:07:00,68.0,40.0,30.17,SW,227,0.0,0.0,36,0.00,,,0.00,WeatherCatV1.02B4,2013-09-06 22:07:00,
2013-09-06 18:12:00,67.8,40.6,30.16,SW,227,0.0,0.0,37,0.00,,,0.00,WeatherCatV1.02B4,2013-09-06 22:12:00,
2013-09-06 18:17:00,67.6,41.1,30.17,SW,227,0.0,0.0,38,0.00,,,0.00,WeatherCatV1.02B4,2013-09-06 22:17:00,
2013-09-06 18:22:00,67.5,40.3,30.16,SW,227,0.0,0.0,37,0.00,,,0.00,WeatherCatV1.02B4,2013-09-06 22:22:00,
2013-09-06 18:27:00,67.4,40.9,30.16,SW,227,0.0,0.0,38,0.00,,,0.00,WeatherCatV1.02B4,2013-09-06 22:27:00,
2013-09-06 18:32:00,67.1,40.0,30.16,SW,227,0.0,0.0,37,0.00,,,0.00,WeatherCatV1.02B4,2013-09-06 22:32:00,
2013-09-06 18:37:00,66.9,40.5,30.16,SW,227,0.0,0.0,38,0.00,,,0.00,WeatherCatV1.02B4,2013-09-06 22:37:00,
2013-09-06 18:42:00,66.6,40.9,30.16,SW,227,0.0,0.0,39,0.00,,,0.00,WeatherCatV1.02B4,2013-09-06 22:42:00,
2013-09-06 18:47:00,66.3,41.2,30.16,SW,227,0.0,0.0,40,0.00,,,0.00,WeatherCatV1.02B4,2013-09-06 22:47:00,
2013-09-06 18:52:00,66.0,41.6,30.16,SW,227,0.0,0.0,41,0.00,,,0.00,WeatherCatV1.02B4,2013-09-06 22:52:00,
2013-09-06 18:57:00,65.7,41.3,30.16,SW,227,0.0,0.0,41,0.00,,,0.00,WeatherCatV1.02B4,2013-09-06 22:57:00,
2013-09-06 19:02:00,65.4,42.3,30.16,SW,227,0.0,0.0,43,0.00,,,0.00,WeatherCatV1.02B4,2013-09-06 23:02:00,
2013-09-06 19:07:00,65.0,42.5,30.16,SW,227,0.0,0.0,44,0.00,,,0.00,WeatherCatV1.02B4,2013-09-06 23:07:00,
2013-09-06 19:12:00,64.6,42.2,30.17,SW,227,0.0,0.0,44,0.00,,,0.00,WeatherCatV1.02B4,2013-09-06 23:12:00,
2013-09-06 19:17:00,64.3,42.5,30.16,SW,227,0.0,0.0,45,0.00,,,0.00,WeatherCatV1.02B4,2013-09-06 23:17:00,
2013-09-06 19:22:00,63.8,42.6,30.17,SW,227,0.0,0.0,46,0.00,,,0.00,WeatherCatV1.02B4,2013-09-06 23:22:00,
2013-09-06 19:27:00,63.3,43.3,30.17,SW,227,0.0,0.0,48,0.00,,,0.00,WeatherCatV1.02B4,2013-09-06 23:27:00,
2013-09-06 19:32:00,62.9,42.9,30.17,SW,227,0.0,0.0,48,0.00,,,0.00,WeatherCatV1.02B4,2013-09-06 23:32:00,
2013-09-06 19:37:00,62.6,43.2,30.17,SW,227,0.0,0.0,49,0.00,,,0.00,WeatherCatV1.02B4,2013-09-06 23:37:00,
2013-09-06 19:42:00,62.2,42.8,30.17,SW,227,0.0,0.0,49,0.00,,,0.00,WeatherCatV1.02B4,2013-09-06 23:42:00,
2013-09-06 19:47:00,61.8,43.0,30.17,SW,227,0.0,0.0,50,0.00,,,0.00,WeatherCatV1.02B4,2013-09-06 23:47:00,
2013-09-06 19:52:00,61.5,42.7,30.17,SW,227,0.0,0.0,50,0.00,,,0.00,WeatherCatV1.02B4,2013-09-06 23:52:00,
2013-09-06 19:57:00,61.2,42.9,30.17,SW,227,0.0,0.0,51,0.00,,,0.00,WeatherCatV1.02B4,2013-09-06 23:57:00,
2013-09-06 20:02:00,60.9,42.6,30.17,SW,227,0.0,0.0,51,0.00,,,0.00,WeatherCatV1.02B4,2013-09-07 00:02:00,
2013-09-06 20:07:00,60.6,42.9,30.17,SW,227,0.0,0.0,52,0.00,,,0.00,WeatherCatV1.02B4,2013-09-07 00:07:00,
2013-09-06 20:12:00,60.3,43.1,30.17,SW,227,0.0,0.0,53,0.00,,,0.00,WeatherCatV1.02B4,2013-09-07 00:12:00,
2013-09-06 20:17:00,60.0,43.3,30.17,SW,227,0.0,0.0,54,0.00,,,0.00,WeatherCatV1.02B4,2013-09-07 00:17:00,
2013-09-06 20:22:00,59.7,43.5,30.17,SW,227,0.0,0.0,55,0.00,,,0.00,WeatherCatV1.02B4,2013-09-07 00:22:00,
2013-09-06 20:27:00,59.4,43.7,30.17,SW,227,0.0,0.0,56,0.00,,,0.00,WeatherCatV1.02B4,2013-09-07 00:27:00,
2013-09-06 20:32:00,59.1,43.4,30.17,SW,227,0.0,0.0,56,0.00,,,0.00,WeatherCatV1.02B4,2013-09-07 00:32:00,
2013-09-06 20:37:00,59.0,43.8,30.17,SW,227,0.0,0.0,57,0.00,,,0.00,WeatherCatV1.02B4,2013-09-07 00:37:00,
2013-09-06 20:42:00,58.8,43.6,30.17,SW,227,0.0,0.0,57,0.00,,,0.00,WeatherCatV1.02B4,2013-09-07 00:42:00,
2013-09-06 20:47:00,58.6,43.9,30.17,SW,227,0.0,0.0,58,0.00,,,0.00,WeatherCatV1.02B4,2013-09-07 00:47:00,
2013-09-06 20:52:00,58.3,44.0,30.17,SW,227,0.0,0.0,59,0.00,,,0.00,WeatherCatV1.02B4,2013-09-07 00:52:00,
2013-09-06 20:57:00,58.1,44.3,30.17,SW,227,0.0,0.0,60,0.00,,,0.00,WeatherCatV1.02B4,2013-09-07 00:57:00,
2013-09-06 21:02:00,57.9,44.5,30.17,SW,227,0.0,0.0,61,0.00,,,0.00,WeatherCatV1.02B4,2013-09-07 01:02:00,
2013-09-06 21:07:00,57.6,44.2,30.17,SW,227,0.0,0.0,61,0.00,,,0.00,WeatherCatV1.02B4,2013-09-07 01:07:00,
2013-09-06 21:12:00,57.4,44.1,30.17,SW,227,0.0,0.0,61,0.00,,,0.00,WeatherCatV1.02B4,2013-09-07 01:12:00,
2013-09-06 21:17:00,57.3,44.0,30.17,SW,227,0.0,0.0,61,0.00,,,0.00,WeatherCatV1.02B4,2013-09-07 01:17:00,
2013-09-06 21:22:00,57.3,44.4,30.17,SW,227,0.0,0.0,62,0.00,,,0.00,WeatherCatV1.02B4,2013-09-07 01:22:00,
2013-09-06 21:27:00,57.1,44.2,30.16,SW,227,0.0,0.0,62,0.00,,,0.00,WeatherCatV1.02B4,2013-09-07 01:27:00,
2013-09-06 21:32:00,57.0,44.5,30.16,SW,227,0.0,0.0,63,0.00,,,0.00,WeatherCatV1.02B4,2013-09-07 01:32:00,
2013-09-06 21:37:00,56.7,44.2,30.17,SW,227,0.0,0.0,63,0.00,,,0.00,WeatherCatV1.02B4,2013-09-07 01:37:00,
2013-09-06 21:42:00,56.6,44.2,30.16,SW,227,0.0,0.0,63,0.00,,,0.00,WeatherCatV1.02B4,2013-09-07 01:42:00,
2013-09-06 21:47:00,56.5,44.1,30.16,SW,227,0.0,0.0,63,0.00,,,0.00,WeatherCatV1.02B4,2013-09-07 01:47:00,
2013-09-06 21:52:00,56.4,44.4,30.17,SW,227,0.0,0.0,64,0.00,,,0.00,WeatherCatV1.02B4,2013-09-07 01:52:00,
2013-09-06 21:57:00,56.3,44.7,30.17,SW,227,0.0,0.0,65,0.00,,,0.00,WeatherCatV1.02B4,2013-09-07 01:57:00,
2013-09-06 22:02:00,56.2,44.6,30.16,SW,227,0.0,0.0,65,0.00,,,0.00,WeatherCatV1.02B4,2013-09-07 02:02:00,
2013-09-06 22:07:00,56.2,45.0,30.16,SW,227,0.0,0.0,66,0.00,,,0.00,WeatherCatV1.02B4,2013-09-07 02:07:00,
2013-09-06 22:12:00,56.1,44.9,30.17,SW,227,0.0,0.0,66,0.00,,,0.00,WeatherCatV1.02B4,2013-09-07 02:12:00,
2013-09-06 22:17:00,55.9,45.1,30.17,SW,227,0.0,0.0,67,0.00,,,0.00,WeatherCatV1.02B4,2013-09-07 02:17:00,
2013-09-06 22:22:00,55.9,45.1,30.17,SW,227,0.0,0.0,67,0.00,,,0.00,WeatherCatV1.02B4,2013-09-07 02:22:00,
2013-09-06 22:27:00,55.9,45.5,30.17,SW,227,0.0,0.0,68,0.00,,,0.00,WeatherCatV1.02B4,2013-09-07 02:27:00,
2013-09-06 22:32:00,55.9,45.5,30.16,SW,227,0.0,0.0,68,0.00,,,0.00,WeatherCatV1.02B4,2013-09-07 02:32:00,
2013-09-06 22:37:00,55.9,45.5,30.16,SW,227,0.0,0.0,68,0.00,,,0.00,WeatherCatV1.02B4,2013-09-07 02:37:00,
2013-09-06 22:42:00,56.0,46.0,30.17,SW,227,0.0,0.0,69,0.00,,,0.00,WeatherCatV1.02B4,2013-09-07 02:42:00,
2013-09-06 22:47:00,56.1,46.1,30.16,SW,227,0.0,0.0,69,0.00,,,0.00,WeatherCatV1.02B4,2013-09-07 02:47:00,
2013-09-06 22:52:00,56.1,46.5,30.16,SW,227,0.0,0.0,70,0.00,,,0.00,WeatherCatV1.02B4,2013-09-07 02:52:00,
2013-09-06 22:57:00,55.9,46.3,30.16,SW,227,0.0,0.0,70,0.00,,,0.00,WeatherCatV1.02B4,2013-09-07 02:57:00,
2013-09-06 23:02:00,55.7,46.4,30.16,SW,227,0.0,0.0,71,0.00,,,0.00,WeatherCatV1.02B4,2013-09-07 03:02:00,
2013-09-06 23:07:00,55.7,46.4,30.16,SW,227,0.0,0.0,71,0.00,,,0.00,WeatherCatV1.02B4,2013-09-07 03:07:00,
2013-09-06 23:12:00,55.6,46.7,30.16,SW,227,0.0,0.0,72,0.00,,,0.00,WeatherCatV1.02B4,2013-09-07 03:12:00,
2013-09-06 23:17:00,55.4,46.2,30.16,SW,227,0.0,0.0,71,0.00,,,0.00,WeatherCatV1.02B4,2013-09-07 03:17:00,
2013-09-06 23:22:00,55.1,46.2,30.16,SW,227,0.0,0.0,72,0.00,,,0.00,WeatherCatV1.02B4,2013-09-07 03:22:00,
2013-09-06 23:27:00,54.8,46.3,30.16,SW,227,0.0,0.0,73,0.00,,,0.00,WeatherCatV1.02B4,2013-09-07 03:27:00,
2013-09-06 23:32:00,54.5,46.4,30.16,SW,227,0.0,0.0,74,0.00,,,0.00,WeatherCatV1.02B4,2013-09-07 03:32:00,
2013-09-06 23:37:00,54.1,46.0,30.16,SW,227,0.0,0.0,74,0.00,,,0.00,WeatherCatV1.02B4,2013-09-07 03:37:00,
2013-09-06 23:42:00,53.9,45.8,30.16,SW,227,0.0,0.0,74,0.00,,,0.00,WeatherCatV1.02B4,2013-09-07 03:42:00,
2013-09-06 23:47:00,53.8,46.1,30.16,SW,227,0.0,0.0,75,0.00,,,0.00,WeatherCatV1.02B4,2013-09-07 03:47:00,
2013-09-06 23:52:00,53.6,46.2,30.16,SW,227,0.0,0.0,76,0.00,,,0.00,WeatherCatV1.02B4,2013-09-07 03:52:00,
2013-09-06 23:57:00,53.4,46.0,30.16,SW,227,0.0,0.0,76,0.00,,,0.00,WeatherCatV1.02B4,2013-09-07 03:57:00,